User: anonymous   Login
Location: Unspecified
(0.0000°N, 0.0000°E)
Time: 02:24:50
(UTC+00:00)
Language:

Tiros 10 - Orbit

View from above orbital plane
View from above orbital plane
View from above satellite
View from above satellite

Ground track
Ground track

The orbit data is extracted from the following two-line orbital elements,

1  1430U 65051A   19081.97813154 -.00000009  00000-0  10192-4 0  9999
2  1430  98.2298 218.2093 0057723 109.5260 251.2176 14.40246718815768
Epoch (UTC): 22 March 2019 23:28:30
Eccentricity: 0.0057723
inclination: 98.2298°
perigee height: 716 km
apogee height: 799 km
right ascension of ascending node: 218.2093°
argument of perigee: 109.5260°
revolutions per day: 14.40246718
mean anomaly at epoch: 251.2176°
orbit number at epoch: 81576

The dashed part of the orbit path shows where the satellite is in the earth's shadow,  

DLR